Flag for Germany Weather past 2 weeks in Soltau, Lower Saxony, Germany

Now
55 °F

Partly sunny.


Feels Like: 54 °F
Forecast: 42 / 58 °F
Wind: 7 mph from Northwest

Location: Fassberg

Current Time: May 25, 2015 at 8:40:18 PM

Latest Report: May 25, 2015 at 7:20 PM


Visibility: N/A

Pressure: 29.92 "Hg

Humidity: 55%

Dew point: 39 °F

Location of SoltauLocation

Historic Weather in Soltau — Graph

°F

Soltau temperature yesterday

Maximum temperature yesterday: 68 °F (at 4:20 PM)
Minimum temperature yesterday: 34 °F (at 5:20 AM)
Average temperature yesterday: 53 °F

Past Weeks' High & Low Weather Summary

 TemperatureHumidityPressure
High77 °F (May 12, 2:20 PM)100% (May 15, 5:20 AM)30.36 "Hg (May 15, 5:20 AM)
Low32 °F (May 16, 5:20 AM)33% (May 11, 4:20 PM)29.59 "Hg (May 18, 9:20 PM)
Average53 °F69%30.04 "Hg
* Reported May 10 7:20 PM — May 25 7:20 PM, Soltau, Weather by CustomWeather, © 2015

Note: Actual official high and low records may vary slightly from our data, if they occured in-between our weather recording intervals... More about our weather records

Advertising

Soltau weather history for previous 24 hours

 ConditionsComfort  
Time TempWeatherWind HumidityBarometerVisibility
7:20 PM
Mon, May 25
55 °FPartly sunny.7 mph55%29.92 "HgN/A
6:20 PM57 °FPartly sunny.13 mph55%29.92 "HgN/A
5:20 PM57 °FPartly sunny.14 mph59%29.92 "HgN/A
4:20 PM57 °FBroken clouds.9 mph67%29.92 "HgN/A
3:20 PM55 °FBroken clouds.6 mph88%29.92 "HgN/A
2:20 PM54 °FBroken clouds.6 mph94%29.92 "Hg5 mi
1:20 PM52 °FDrizzle. Fog.9 mph94%29.95 "Hg2 mi
12:50 PM54 °FDrizzle. Fog.7 mph94%29.95 "Hg1 mi
12:20 PM54 °FFog.6 mph94%29.95 "Hg3 mi
11:50 AM54 °FDrizzle. Fog.7 mph94%29.95 "Hg3 mi
11:20 AM52 °FPartly sunny.8 mph94%29.95 "Hg4 mi
10:20 AM52 °FLight rain. Fog.8 mph94%29.95 "Hg3 mi
9:20 AM52 °FLight rain. Partly sunny.5 mph88%29.95 "HgN/A
8:20 AM50 °FLight rain. Broken clouds.3 mph88%29.95 "HgN/A
7:20 AM46 °FLight rain. Broken clouds.3 mph93%29.95 "HgN/A
6:20 AM43 °FPartly sunny.1 mph87%29.95 "HgN/A
5:20 AM39 °FFog.No wind93%29.95 "HgN/A
4:20 AM36 °FFog.1 mph93%29.95 "HgN/A
3:20 AM41 °FPassing clouds.1 mph93%29.95 "HgN/A
2:20 AM41 °FPassing clouds.1 mph93%29.98 "HgN/A
1:20 AM45 °FPassing clouds.1 mph87%29.98 "HgN/A
12:20 AM46 °FPassing clouds.1 mph87%30.01 "HgN/A
11:20 PM
Sun, May 24
50 °FPassing clouds.1 mph76%30.01 "HgN/A
10:20 PM52 °FScattered clouds.1 mph72%30.01 "HgN/A
9:20 PM61 °FScattered clouds.6 mph52%30.01 "HgN/A
8:20 PM64 °FPassing clouds.9 mph46%30.01 "HgN/A
Weather by CustomWeather, © 2015

See weather overviewHow to use our weather pages